This is the latest recevied weather packets stored in our database for station/object WX1N. If no packets are shown the sender has not sent any weather packets the latest 10 day(s).
| Time | Temp. | Humidity | Pressure | Rain* | Wind** | Luminosity | Snow |
|---|---|---|---|---|---|---|---|
| 1777453804 | 1.11° C | 88% | 1016.3 hPa | 0 mm | - | - | - |
| 1777453504 | 1.11° C | 88% | 1016.4 hPa | 0 mm | - | - | - |
| 1777453204 | 1.67° C | 88% | 1016.4 hPa | 0 mm | - | - | - |
| 1777452604 | 1.67° C | 88% | 1016.3 hPa | 0 mm | - | - | - |
| 1777452004 | 1.11° C | 88% | 1016.4 hPa | 0 mm | - | - | - |
| 1777451704 | 1.67° C | 88% | 1016.6 hPa | 0 mm | - | - | - |
| 1777451404 | 1.67° C | 88% | 1016.7 hPa | 0 mm | - | - | - |
| 1777451104 | 1.67° C | 88% | 1016.6 hPa | 0 mm | - | - | - |
| 1777450803 | 1.67° C | 88% | 1016.4 hPa | 0 mm | - | - | - |
| 1777450504 | 1.67° C | 87% | 1016.4 hPa | 0 mm | - | - | - |
| 1777450204 | 1.67° C | 87% | 1016.3 hPa | 0 mm | - | - | - |
| 1777449903 | 2.22° C | 87% | 1016.4 hPa | 0 mm | - | - | - |
| 1777449604 | 2.22° C | 87% | 1016.4 hPa | 0 mm | - | - | - |
| 1777449303 | 2.22° C | 87% | 1016.2 hPa | 0 mm | - | - | - |
| 1777448404 | 2.22° C | 86% | 1016.6 hPa | 0 mm | - | - | - |
| 1777448104 | 2.78° C | 86% | 1016.8 hPa | 0 mm | - | - | - |
| 1777447804 | 2.78° C | 85% | 1016.9 hPa | 0 mm | - | - | - |
| 1777447504 | 2.78° C | 85% | 1017 hPa | 0 mm | - | - | - |
| 1777447203 | 3.33° C | 85% | 1017.2 hPa | 0 mm | - | - | - |
| 1777446904 | 3.33° C | 83% | 1017.2 hPa | 0 mm | - | - | - |
| 1777446604 | 3.33° C | 83% | 1017.4 hPa | 0 mm | - | - | - |
| 1777446304 | 3.33° C | 83% | 1017.5 hPa | 0 mm | - | - | - |
| 1777446004 | 3.89° C | 83% | 1017.6 hPa | 0 mm | - | - | - |
| 1777445703 | 3.89° C | 82% | 1017.6 hPa | 0 mm | - | - | - |
| 1777444804 | 3.89° C | 79% | 1018.1 hPa | 0 mm | - | - | - |
* Rain latest hour (hover to see other rain measurements)
** Current wind speed in m/s (hover to see current wind gust speed)